Probability
0 0 1 2 4 5 4 4 4 3 3 2 1 1 1 2 1 0 2 5 6 6 5 4 4 4 5 4 4 4 3 3 3 3 3 3 3 3 3 3 3 3 2
0 0 0 2 5 6 5 5 4 3 3 3 2 2 2 3 2 1 2 5 8 9 8 7 6 5 5 4 4 4 3 3 3 3 3 3 3 3 3 3 3 3 3
0 0 0 1 4 6 6 6 5 4 3 3 3 3 3 3 1 1 3 6 8 9 9 8 7 5 4 4 4 4 4 4 4 4 4 3 3 3 3 3 3 3 3
0 0 0 1 3 6 6 6 6 5 4 3 3 3 3 3 2 2 3 5 6 6 6 7 6 5 4 4 4 5 6 6 6 6 5 4 3 3 3 3 3 3 3
0 0 1 2 3 5 6 5 5 5 4 3 3 3 3 4 4 3 3 4 4 3 4 5 6 6 6 6 6 6 7 8 8 8 6 5 4 4 3 3 3 3 3
0 0 1 2 3 4 4 3 3 3 3 3 3 3 4 5 6 4 3 3 2 1 2 3 5 6 6 6 6 6 6 7 7 7 6 6 6 5 4 3 3 3 3
0 0 0 1 2 2 2 2 2 2 3 3 4 3 4 5 5 5 3 2 1 0 1 2 4 6 6 5 6 6 6 6 6 5 5 5 5 4 3 3 3 3 4
0 0 0 0 1 1 0 0 1 2 3 4 5 4 3 3 3 3 3 2 1 1 1 3 5 7 6 5 6 6 6 6 6 5 5 5 5 4 4 3 3 4 5
0 1 1 1 0 0 0 0 1 1 2 4 5 4 3 2 2 2 2 2 2 2 3 4 6 7 6 5 4 5 4 5 5 5 5 5 5 5 5 4 4 5 6
1 2 2 2 1 1 1 1 1 2 3 4 4 3 3 3 2 3 3 3 3 3 3 4 5 6 6 4 3 2 2 3 4 4 4 5 5 5 5 5 5 5 6
2 3 3 3 3 3 4 4 4 4 3 3 3 3 3 3 3 3 3 3 3 3 3 3 4 4 5 4 3 2 2 3 3 3 3 4 6 6 5 5 5 5 5
4 4 4 4 5 6 6 6 6 5 4 4 5 5 4 4 4 4 4 4 3 3 3 3 3 3 4 4 4 4 3 3 2 1 1 2 4 5 4 4 5 5 5
5 5 5 6 7 8 9 8 7 6 6 6 7 8 8 8 7 6 5 5 4 3 3 3 3 3 3 4 4 4 3 3 1 0 0 1 1 2 2 2 3 4 4
4 5 6 7 8 9 10 10 9 8 9 9 9 10 12 12 10 8 7 7 5 3 3 3 2 3 3 3 3 3 4 3 1 0 0 0 0 0 0 1 1 2 2
7 7 7 8 10 11 12 12 12 12 14 14 13 14 15 14 11 8 9 9 7 4 3 3 4 3 3 2 2 2 3 3 1 0 0 0 0 0 0 0 0 0 1
10 10 10 11 13 14 16 16 16 17 20 21 20 19 19 15 10 9 10 10 8 5 3 4 5 4 3 2 2 1 2 1 1 0 0 0 0 0 0 0 0 0 0
11 11 13 14 15 16 19 21 19 20 23 24 22 22 22 18 13 12 14 14 11 8 5 4 5 6 6 6 5 3 2 2 1 1 0 0 0 0 0 0 0 0 0
10 11 13 14 14 16 20 23 22 21 21 22 21 22 22 21 19 18 17 18 17 13 10 8 8 8 10 10 9 7 5 5 4 3 1 0 0 0 0 0 0 0 0
11 13 14 14 14 17 21 24 24 22 21 22 23 23 23 24 24 21 19 21 22 18 16 14 12 12 14 15 13 10 9 11 9 5 3 2 1 0 0 0 0 0 0
14 15 16 16 16 18 20 23 23 23 24 25 27 27 25 24 24 22 20 22 23 21 19 18 16 16 19 19 16 13 13 15 14 10 8 6 4 2 1 0 0 0 0
16 16 17 18 17 16 17 18 19 23 27 30 31 30 27 23 20 18 18 20 23 23 21 19 18 18 18 19 17 15 15 17 16 16 14 11 9 7 5 3 1 0 0
16 17 18 18 17 14 11 11 13 19 25 30 32 31 26 21 17 15 14 14 17 19 20 20 18 16 15 15 15 14 15 16 17 16 15 12 11 10 9 6 2 0 0
16 17 18 18 17 13 9 6 8 13 20 25 28 29 26 21 18 18 16 13 14 16 17 18 17 15 14 14 15 15 15 17 17 16 14 12 10 9 9 6 2 0 0
17 17 17 17 16 12 8 4 5 10 16 20 23 25 25 22 19 19 18 18 18 17 14 14 14 14 14 15 16 17 17 17 17 16 14 12 11 9 8 6 3 0 0
20 19 18 17 16 12 7 3 5 11 16 18 20 21 22 20 16 14 17 20 22 20 14 10 10 11 12 14 15 18 18 16 14 13 13 14 13 11 9 7 5 2 2
21 21 19 17 16 12 7 3 5 11 16 18 20 19 18 16 12 11 15 20 22 20 15 11 9 9 11 12 12 16 17 15 12 9 11 15 16 13 10 7 6 5 4
Wind_Speed
1 1 1 0 1 1 2 1 1 1 2 2 2 1 1 1 1 1 3 8 6 5 5 6 6 6 6 7 7 8 8 8 8 8 9 9 9 9 9 9 9 8 8
1 0 1 0 0 0 0 0 1 2 2 1 1 1 1 1 0 1 1 6 8 7 6 5 5 6 7 7 8 9 8 8 8 8 9 9 8 9 9 9 9 9 8
1 0 0 1 0 1 1 1 1 2 2 2 2 2 2 1 0 1 1 1 4 8 8 6 6 6 7 7 7 8 8 8 8 8 9 9 9 9 9 9 9 9 9
0 1 0 0 0 1 1 1 2 1 1 1 1 1 1 1 1 2 2 2 1 2 7 8 7 6 6 6 6 7 7 8 9 9 9 9 10 10 9 9 9 9 9
1 1 1 0 1 1 1 2 0 1 1 1 1 2 1 1 2 2 2 2 1 2 2 7 9 7 6 5 5 6 7 8 8 10 10 10 10 10 10 10 10 10 9
2 2 2 1 2 1 1 1 1 1 1 1 2 1 2 2 2 1 3 2 2 3 3 2 5 6 7 5 4 5 6 7 8 9 9 10 10 10 10 11 10 10 10
3 3 3 2 2 1 1 2 2 2 1 1 2 2 2 2 2 2 2 2 2 2 2 2 2 1 4 8 5 4 5 6 7 7 8 9 10 10 11 11 11 11 10
3 3 3 3 2 1 2 2 2 2 1 1 2 2 2 2 2 1 1 2 2 2 2 3 2 2 3 2 4 5 4 5 6 7 7 8 9 10 10 11 11 11 10
3 3 3 3 3 3 2 2 2 3 2 2 2 2 3 1 0 1 1 1 1 1 2 2 3 2 3 2 2 5 4 5 6 6 7 8 8 8 9 10 10 10 10
4 4 4 4 3 3 3 4 2 3 3 3 2 1 2 2 3 1 2 2 1 2 3 3 2 2 3 3 2 1 3 3 4 5 6 7 7 8 9 9 10 10 10
4 4 4 4 4 4 4 4 3 4 3 4 3 2 2 2 4 3 2 2 2 2 3 3 3 2 2 3 2 3 4 4 3 3 4 6 7 8 8 8 9 9 9
3 4 5 4 4 4 4 4 4 5 4 4 4 3 3 3 2 3 3 3 2 2 2 2 3 3 2 2 2 4 3 3 3 3 3 5 6 7 7 7 7 7 8
3 3 4 4 4 4 4 4 4 4 4 4 5 4 3 4 3 3 4 3 3 2 2 3 3 2 2 2 1 4 5 4 3 3 3 3 4 5 6 6 6 6 6
3 3 4 4 4 5 5 4 4 5 4 5 5 4 4 3 3 3 4 3 3 3 3 3 2 2 1 2 1 3 3 4 3 3 3 3 3 3 4 5 4 5 5
3 3 4 4 5 4 5 5 4 4 4 5 5 5 4 3 3 3 4 4 4 4 3 2 2 1 2 1 1 2 3 4 4 4 3 3 3 3 3 3 3 3 4
4 4 4 4 4 4 4 5 5 4 5 5 4 4 4 4 3 3 3 3 4 5 4 2 1 1 1 2 2 3 3 5 5 5 4 4 3 3 3 4 4 4 4
4 4 4 4 4 4 4 4 5 5 6 5 5 5 5 4 4 3 3 3 3 4 4 3 2 1 2 3 2 3 3 4 4 7 6 5 4 4 4 4 3 4 4
4 4 4 4 4 4 4 5 5 5 5 6 5 5 5 4 4 4 3 4 3 4 4 4 3 2 3 3 3 3 3 3 3 6 7 6 5 4 4 4 3 4 4
4 4 4 4 4 5 5 5 5 5 6 6 5 6 6 5 5 4 4 4 4 4 4 4 4 2 3 2 3 3 3 2 4 4 8 8 6 6 5 4 4 4 4
4 4 4 4 4 5 5 5 5 6 6 6 6 6 6 5 5 5 5 5 4 4 4 4 4 3 2 2 3 3 3 3 3 3 3 4 7 8 7 6 6 5 5
4 4 4 4 5 4 4 4 6 6 6 5 5 6 6 4 4 4 4 4 4 4 4 4 4 3 3 2 3 3 3 2 3 3 3 4 4 5 6 8 8 6 6
4 4 4 4 4 3 2 3 5 5 5 6 5 6 6 6 5 5 4 4 5 6 5 5 4 4 4 4 3 4 3 3 3 2 3 4 3 3 3 3 5 7 6
4 4 4 4 4 3 3 3 5 5 5 5 5 5 5 3 4 4 5 7 7 6 7 6 5 5 5 4 5 5 4 4 4 2 3 4 4 4 3 3 6 7 7
4 4 4 4 4 3 2 3 4 5 5 5 5 5 5 4 3 3 4 5 5 5 5 5 5 5 4 4 4 5 5 5 4 3 3 4 4 4 3 3 7 8 8
3 3 3 3 3 2 2 3 4 4 3 4 4 3 4 4 1 3 4 4 4 4 3 4 5 5 4 5 5 4 4 4 4 3 3 3 3 3 3 4 6 10 9
3 3 2 2 2 2 1 2 4 4 3 3 3 2 1 1 1 2 4 4 4 4 3 2 3 4 5 5 6 5 5 4 4 3 2 3 3 3 3 3 3 5 6
Wind_Direction
69 78 97 94 126 128 165 186 181 168 190 201 224 222 278 317 277 238 143 161 180 197 205 209 212 212 211 213 209 209 209 209 205 202 202 203 204 201 200 202 204 205 204
66 30 129 128 114 137 78 222 187 186 202 191 218 217 267 284 121 253 210 165 180 191 197 204 208 212 215 213 214 211 212 212 209 206 205 203 203 203 204 209 208 204 203
97 291 152 189 91 133 169 207 212 206 210 201 210 220 222 251 146 240 247 212 179 181 192 205 211 213 215 213 216 215 215 214 213 211 208 206 204 203 204 209 208 205 205
245 275 269 110 94 230 224 206 237 228 229 236 228 244 225 204 226 231 237 218 222 188 182 191 203 208 212 216 216 218 216 215 215 216 214 211 207 206 205 208 206 205 206
226 254 270 10 248 250 273 275 77 279 252 262 238 216 235 225 235 236 248 240 218 236 211 172 184 196 205 212 220 224 220 219 219 218 218 215 212 209 207 208 209 209 210
228 249 234 230 262 260 264 286 280 269 279 272 279 290 259 246 236 224 237 230 225 229 228 196 188 184 191 201 216 228 227 224 221 220 219 218 215 210 208 208 210 212 214
234 243 263 227 251 256 267 263 251 216 235 272 261 252 230 215 212 221 238 255 234 237 234 223 232 223 181 186 199 220 228 227 222 220 221 219 216 212 211 212 213 214 214
240 233 245 254 244 253 240 247 249 260 262 265 278 277 251 199 182 209 225 223 255 249 237 221 221 218 255 214 157 191 220 227 225 222 219 217 217 215 214 217 217 216 214
242 254 249 254 252 256 245 240 239 241 253 249 276 290 289 315 314 172 211 227 243 268 256 236 227 213 234 244 207 173 198 223 229 231 225 219 217 217 214 217 217 218 219
242 240 241 246 256 259 254 249 238 250 251 252 224 237 287 312 286 256 201 198 210 247 255 246 233 212 225 234 203 132 170 204 223 234 231 220 215 215 212 216 219 220 219
231 239 238 241 244 251 253 263 262 256 252 260 266 247 235 232 254 267 269 257 232 239 241 238 243 238 234 239 223 162 172 196 207 227 231 223 216 214 212 216 218 218 217
228 226 232 237 241 249 248 250 250 241 252 263 270 268 257 250 248 255 256 252 261 256 245 247 247 238 235 241 213 124 167 190 198 206 219 220 217 217 214 211 213 215 219
238 233 242 240 244 241 247 252 247 255 246 246 252 261 265 267 262 256 257 260 264 264 251 238 228 233 247 247 187 152 175 183 198 199 200 206 207 208 211 212 218 221 220
261 262 251 247 246 246 247 244 248 246 243 244 251 258 258 257 263 257 259 259 259 255 241 254 242 227 238 251 91 198 184 170 191 197 199 205 204 205 207 208 212 213 214
254 246 251 253 253 252 253 253 252 252 249 249 250 244 248 248 248 253 253 252 259 264 263 237 241 219 238 224 142 225 218 160 178 193 199 203 206 205 203 199 198 201 201
257 258 256 256 258 257 252 251 250 246 248 247 250 255 257 253 250 246 248 248 249 259 270 269 260 262 288 261 180 229 223 171 179 191 197 200 202 203 205 202 197 192 190
252 254 256 257 259 262 261 252 254 252 251 251 250 243 242 253 259 256 249 247 241 242 251 264 252 224 229 255 243 242 230 223 188 178 190 194 194 193 189 189 185 182 185
248 244 248 253 257 257 257 255 257 254 252 252 252 252 250 242 244 254 255 251 243 238 242 254 256 237 229 228 233 245 242 235 236 162 174 183 189 191 189 189 187 191 194
248 246 243 248 258 264 262 260 259 257 255 255 255 250 250 244 243 246 249 248 244 239 243 251 259 256 247 230 221 230 232 237 244 178 175 182 187 189 188 188 189 192 197
244 244 245 250 255 258 261 262 258 255 253 252 251 250 246 241 237 239 236 237 241 242 236 242 249 251 245 234 222 228 230 225 234 227 200 192 182 188 193 196 196 194 198
244 247 249 252 256 252 262 266 259 254 253 253 249 250 247 240 237 236 247 239 238 242 243 244 248 248 241 238 230 233 237 237 225 225 223 215 195 202 196 197 200 197 197
247 246 249 253 257 266 299 291 273 265 259 253 251 250 246 224 213 215 225 237 242 241 245 248 249 254 250 242 241 242 234 230 238 221 235 234 220 223 216 202 173 180 193
242 243 244 249 252 259 268 266 269 265 260 257 255 251 255 248 223 228 219 221 230 236 238 245 245 252 258 252 245 242 236 243 247 231 230 240 226 231 225 172 161 181 192
247 245 244 244 245 240 245 256 267 252 261 263 253 245 244 248 248 254 242 237 240 237 238 240 250 258 262 271 256 244 238 236 242 228 224 244 234 232 226 200 170 186 196
253 251 241 241 247 244 241 261 265 250 248 256 256 249 241 235 242 266 244 243 248 246 221 218 236 248 260 260 257 249 242 238 245 241 233 249 245 236 231 218 183 183 193
249 254 239 235 241 255 230 271 272 257 254 250 240 227 188 244 254 250 246 245 250 258 263 243 223 226 235 229 221 232 244 244 252 253 225 242 246 244 240 221 207 192 196